Time,TemperatureF,DewpointF,PressureIn,WindDirection,WindDirectionDegrees,WindSpeedMPH,WindSpeedGustMPH,Humidity,HourlyPrecipIn,Conditions,Clouds,dailyrainin,SoftwareType,DateUTC
2013-04-18 00:01:00,56.1,26.6,30.16,NE,45,0.0,1.0,32,0.00,,,0.00,meteohub,2013-04-18 07:01:00,
2013-04-18 00:06:00,56.1,26.6,30.16,NE,45,0.0,1.0,32,0.00,,,0.00,meteohub,2013-04-18 07:06:00,
2013-04-18 00:11:00,55.6,26.2,30.16,North,0,0.0,1.0,32,0.00,,,0.00,meteohub,2013-04-18 07:11:00,
2013-04-18 00:16:00,55.4,26.8,30.17,North,0,0.0,1.0,33,0.00,,,0.00,meteohub,2013-04-18 07:16:00,
2013-04-18 00:22:00,55.0,27.1,30.17,North,0,0.0,1.0,34,0.00,,,0.00,meteohub,2013-04-18 07:22:00,
2013-04-18 00:27:00,54.5,27.3,30.17,North,0,1.0,2.0,35,0.00,,,0.00,meteohub,2013-04-18 07:27:00,
2013-04-18 00:32:00,54.1,27.7,30.17,North,0,1.0,2.0,36,0.00,,,0.00,meteohub,2013-04-18 07:32:00,
2013-04-18 00:37:00,54.1,27.1,30.17,NE,45,2.0,2.0,35,0.00,,,0.00,meteohub,2013-04-18 07:37:00,
2013-04-18 00:42:00,54.7,27.5,30.16,North,0,2.0,2.0,35,0.00,,,0.00,meteohub,2013-04-18 07:42:00,
2013-04-18 00:47:00,55.0,27.1,30.17,North,0,2.0,2.0,34,0.00,,,0.00,meteohub,2013-04-18 07:47:00,
2013-04-18 00:52:00,55.4,26.8,30.17,North,0,4.0,4.0,33,0.00,,,0.00,meteohub,2013-04-18 07:52:00,
2013-04-18 00:57:00,55.8,27.1,30.17,NE,45,5.0,5.0,33,0.00,,,0.00,meteohub,2013-04-18 07:57:00,
2013-04-18 01:02:00,55.8,27.1,30.17,East,90,3.0,5.0,33,0.00,,,0.00,meteohub,2013-04-18 08:02:00,
2013-04-18 01:07:00,55.8,27.1,30.17,East,90,3.0,5.0,33,0.00,,,0.00,meteohub,2013-04-18 08:07:00,
2013-04-18 01:12:00,56.7,27.1,30.17,North,0,7.0,7.0,32,0.00,,,0.00,meteohub,2013-04-18 08:12:00,
2013-04-18 01:17:00,56.8,27.3,30.17,North,0,8.0,8.0,32,0.00,,,0.00,meteohub,2013-04-18 08:17:00,
2013-04-18 01:22:00,57.0,28.2,30.17,NE,45,6.0,8.0,33,0.00,,,0.00,meteohub,2013-04-18 08:22:00,
2013-04-18 01:27:00,57.0,28.2,30.17,North,0,8.0,8.0,33,0.00,,,0.00,meteohub,2013-04-18 08:27:00,
2013-04-18 01:32:00,57.2,28.4,30.17,NE,45,5.0,8.0,33,0.00,,,0.00,meteohub,2013-04-18 08:32:00,
2013-04-18 01:37:00,57.4,28.6,30.17,North,0,4.0,10.0,33,0.00,,,0.00,meteohub,2013-04-18 08:37:00,
2013-04-18 01:42:00,57.2,28.4,30.17,NE,45,5.0,10.0,33,0.00,,,0.00,meteohub,2013-04-18 08:42:00,
2013-04-18 01:47:00,57.2,29.1,30.17,North,0,7.0,10.0,34,0.00,,,0.00,meteohub,2013-04-18 08:47:00,
2013-04-18 01:52:00,57.0,29.7,30.17,North,0,4.0,8.0,35,0.00,,,0.00,meteohub,2013-04-18 08:52:00,
2013-04-18 01:58:00,56.8,29.5,30.17,NE,45,4.0,8.0,35,0.00,,,0.00,meteohub,2013-04-18 08:58:00,
2013-04-18 02:03:00,56.7,29.3,30.17,East,90,4.0,8.0,35,0.00,,,0.00,meteohub,2013-04-18 09:03:00,
2013-04-18 02:08:00,56.7,29.3,30.17,NE,45,7.0,7.0,35,0.00,,,0.00,meteohub,2013-04-18 09:08:00,
2013-04-18 02:14:00,56.8,29.5,30.17,North,0,6.0,8.0,35,0.00,,,0.00,meteohub,2013-04-18 09:14:00,
2013-04-18 02:19:00,56.8,29.5,30.16,NE,45,4.0,9.0,35,0.00,,,0.00,meteohub,2013-04-18 09:19:00,
2013-04-18 02:24:00,57.0,28.9,30.16,North,0,4.0,9.0,34,0.00,,,0.00,meteohub,2013-04-18 09:24:00,
2013-04-18 02:29:00,57.0,28.2,30.16,NE,45,5.0,9.0,33,0.00,,,0.00,meteohub,2013-04-18 09:29:00,
2013-04-18 02:34:00,57.2,28.4,30.16,North,0,4.0,7.0,33,0.00,,,0.00,meteohub,2013-04-18 09:34:00,
2013-04-18 02:39:00,57.2,27.7,30.16,North,0,5.0,7.0,32,0.00,,,0.00,meteohub,2013-04-18 09:39:00,
2013-04-18 02:45:00,57.4,27.7,30.16,NE,45,4.0,6.0,32,0.00,,,0.00,meteohub,2013-04-18 09:45:00,
2013-04-18 02:50:00,57.4,27.7,30.16,NE,45,4.0,7.0,32,0.00,,,0.00,meteohub,2013-04-18 09:50:00,
2013-04-18 02:55:00,57.4,27.7,30.16,NE,45,4.0,7.0,32,0.00,,,0.00,meteohub,2013-04-18 09:55:00,
2013-04-18 03:00:00,57.2,28.4,30.16,North,0,3.0,6.0,33,0.00,,,0.00,meteohub,2013-04-18 10:00:00,
2013-04-18 03:06:00,57.2,28.4,30.16,North,0,3.0,5.0,33,0.00,,,0.00,meteohub,2013-04-18 10:06:00,
2013-04-18 03:11:00,56.8,28.0,30.16,North,0,4.0,8.0,33,0.00,,,0.00,meteohub,2013-04-18 10:11:00,
2013-04-18 03:16:00,56.7,27.9,30.16,NE,45,5.0,8.0,33,0.00,,,0.00,meteohub,2013-04-18 10:16:00,
2013-04-18 03:21:00,56.7,27.9,30.16,NE,45,6.0,8.0,33,0.00,,,0.00,meteohub,2013-04-18 10:21:00,
2013-04-18 03:26:00,56.8,28.0,30.16,NE,45,6.0,8.0,33,0.00,,,0.00,meteohub,2013-04-18 10:26:00,
2013-04-18 03:31:00,57.0,28.2,30.16,East,90,4.0,11.0,33,0.00,,,0.00,meteohub,2013-04-18 10:31:00,
2013-04-18 03:36:00,56.8,28.8,30.16,North,0,6.0,11.0,34,0.00,,,0.00,meteohub,2013-04-18 10:36:00,
2013-04-18 03:41:00,56.8,28.0,30.16,North,0,5.0,11.0,33,0.00,,,0.00,meteohub,2013-04-18 10:41:00,
2013-04-18 03:46:00,57.0,28.2,30.17,NE,45,8.0,8.0,33,0.00,,,0.00,meteohub,2013-04-18 10:46:00,
2013-04-18 03:52:00,57.0,28.2,30.17,NE,45,8.0,8.0,33,0.00,,,0.00,meteohub,2013-04-18 10:52:00,
2013-04-18 03:57:00,57.0,28.2,30.17,NE,45,5.0,8.0,33,0.00,,,0.00,meteohub,2013-04-18 10:57:00,
2013-04-18 04:02:00,57.0,28.2,30.17,NE,45,4.0,8.0,33,0.00,,,0.00,meteohub,2013-04-18 11:02:00,
2013-04-18 04:07:00,57.0,28.2,30.17,NE,45,4.0,8.0,33,0.00,,,0.00,meteohub,2013-04-18 11:07:00,
2013-04-18 04:12:00,57.2,28.4,30.17,NE,45,4.0,7.0,33,0.00,,,0.00,meteohub,2013-04-18 11:12:00,
2013-04-18 04:17:00,57.2,27.7,30.17,NE,45,4.0,5.0,32,0.00,,,0.00,meteohub,2013-04-18 11:17:00,
2013-04-18 04:22:00,57.2,28.4,30.17,North,0,5.0,8.0,33,0.00,,,0.00,meteohub,2013-04-18 11:22:00,
2013-04-18 04:27:00,57.2,28.4,30.17,North,0,5.0,8.0,33,0.00,,,0.00,meteohub,2013-04-18 11:27:00,
2013-04-18 04:32:00,57.4,28.6,30.17,North,0,8.0,8.0,33,0.00,,,0.00,meteohub,2013-04-18 11:32:00,
2013-04-18 04:37:00,57.2,28.4,30.17,NE,45,6.0,8.0,33,0.00,,,0.00,meteohub,2013-04-18 11:37:00,
2013-04-18 04:43:00,57.2,28.4,30.17,North,0,6.0,8.0,33,0.00,,,0.00,meteohub,2013-04-18 11:43:00,
2013-04-18 04:48:00,57.4,28.6,30.17,NE,45,5.0,8.0,33,0.00,,,0.00,meteohub,2013-04-18 11:48:00,
2013-04-18 04:53:00,57.4,28.6,30.16,NE,45,6.0,7.0,33,0.00,,,0.00,meteohub,2013-04-18 11:53:00,
2013-04-18 04:58:00,57.4,28.6,30.17,NE,45,6.0,7.0,33,0.00,,,0.00,meteohub,2013-04-18 11:58:00,
2013-04-18 05:03:00,57.6,28.6,30.16,NE,45,5.0,7.0,33,0.00,,,0.00,meteohub,2013-04-18 12:03:00,
2013-04-18 05:08:00,57.6,28.6,30.16,NE,45,6.0,6.0,33,0.00,,,0.00,meteohub,2013-04-18 12:08:00,
2013-04-18 05:14:00,57.4,28.6,30.16,NE,45,2.0,6.0,33,0.00,,,0.00,meteohub,2013-04-18 12:14:00,
2013-04-18 05:19:00,57.4,28.6,30.16,North,0,8.0,8.0,33,0.00,,,0.00,meteohub,2013-04-18 12:19:00,
2013-04-18 05:24:00,57.6,28.6,30.17,NE,45,4.0,6.0,33,0.00,,,0.00,meteohub,2013-04-18 12:24:00,
2013-04-18 05:29:00,57.6,28.6,30.17,East,90,13.0,13.0,33,0.00,,,0.00,meteohub,2013-04-18 12:29:00,
2013-04-18 05:34:00,58.1,29.1,30.17,NE,45,8.0,13.0,33,0.00,,,0.00,meteohub,2013-04-18 12:34:00,
2013-04-18 05:39:00,58.1,29.1,30.17,North,0,6.0,13.0,33,0.00,,,0.00,meteohub,2013-04-18 12:39:00,
2013-04-18 05:44:00,58.3,29.3,30.16,North,0,8.0,13.0,33,0.00,,,0.00,meteohub,2013-04-18 12:44:00,
2013-04-18 05:50:00,58.5,29.5,30.17,ENE,68,9.0,10.0,33,0.00,,,0.00,meteohub,2013-04-18 12:50:00,
2013-04-18 05:55:00,58.5,29.5,30.17,North,0,8.0,10.0,33,0.00,,,0.00,meteohub,2013-04-18 12:55:00,
2013-04-18 06:00:00,58.6,29.7,30.17,NE,45,11.0,11.0,33,0.00,,,0.00,meteohub,2013-04-18 13:00:00,
2013-04-18 06:05:00,58.6,29.7,30.17,NE,45,5.0,11.0,33,0.00,,,0.00,meteohub,2013-04-18 13:05:00,
2013-04-18 06:11:00,58.5,29.5,30.17,NE,45,7.0,11.0,33,0.00,,,0.00,meteohub,2013-04-18 13:11:00,
2013-04-18 06:16:00,58.5,30.2,30.17,North,0,6.0,11.0,34,0.00,,,0.00,meteohub,2013-04-18 13:16:00,
2013-04-18 06:22:00,58.5,30.2,30.17,NE,45,5.0,7.0,34,0.00,,,0.00,meteohub,2013-04-18 13:22:00,
2013-04-18 06:27:00,58.3,30.0,30.17,NE,45,8.0,10.0,34,0.00,,,0.00,meteohub,2013-04-18 13:27:00,
2013-04-18 06:32:00,58.1,30.6,30.17,NE,45,6.0,10.0,35,0.00,,,0.00,meteohub,2013-04-18 13:32:00,
2013-04-18 06:37:00,57.9,30.4,30.17,NE,45,5.0,8.0,35,0.00,,,0.00,meteohub,2013-04-18 13:37:00,
2013-04-18 06:42:00,57.9,30.4,30.17,North,0,7.0,8.0,35,0.00,,,0.00,meteohub,2013-04-18 13:42:00,
2013-04-18 06:47:00,57.9,30.4,30.18,NE,45,6.0,8.0,35,0.00,,,0.00,meteohub,2013-04-18 13:47:00,
2013-04-18 06:52:00,57.9,30.4,30.18,North,0,4.0,8.0,35,0.00,,,0.00,meteohub,2013-04-18 13:52:00,
2013-04-18 06:57:00,57.9,30.4,30.18,NE,45,7.0,8.0,35,0.00,,,0.00,meteohub,2013-04-18 13:57:00,
2013-04-18 07:02:00,57.9,30.4,30.19,NE,45,5.0,8.0,35,0.00,,,0.00,meteohub,2013-04-18 14:02:00,
2013-04-18 07:07:00,57.9,30.4,30.19,North,0,4.0,8.0,35,0.00,,,0.00,meteohub,2013-04-18 14:07:00,
2013-04-18 07:12:00,58.1,30.6,30.19,NE,45,5.0,8.0,35,0.00,,,0.00,meteohub,2013-04-18 14:12:00,
2013-04-18 07:17:00,58.3,30.7,30.19,North,0,4.0,8.0,35,0.00,,,0.00,meteohub,2013-04-18 14:17:00,
2013-04-18 07:22:00,58.5,30.9,30.19,NE,45,13.0,13.0,35,0.00,,,0.00,meteohub,2013-04-18 14:22:00,
2013-04-18 07:27:00,59.0,31.5,30.20,NE,45,5.0,13.0,35,0.00,,,0.00,meteohub,2013-04-18 14:27:00,
2013-04-18 07:32:00,59.2,31.5,30.20,NE,45,5.0,13.0,35,0.00,,,0.00,meteohub,2013-04-18 14:32:00,
2013-04-18 07:37:00,59.5,31.8,30.20,North,0,8.0,13.0,35,0.00,,,0.00,meteohub,2013-04-18 14:37:00,
2013-04-18 07:42:00,59.7,32.0,30.20,NE,45,6.0,12.0,35,0.00,,,0.00,meteohub,2013-04-18 14:42:00,
2013-04-18 07:48:00,59.9,32.2,30.20,NE,45,7.0,12.0,35,0.00,,,0.00,meteohub,2013-04-18 14:48:00,
2013-04-18 07:53:00,60.1,32.4,30.20,East,90,8.0,9.0,35,0.00,,,0.00,meteohub,2013-04-18 14:53:00,
2013-04-18 07:58:00,60.3,32.5,30.20,NE,45,13.0,13.0,35,0.00,,,0.00,meteohub,2013-04-18 14:58:00,
2013-04-18 08:03:00,60.6,32.9,30.21,NE,45,8.0,13.0,35,0.00,,,0.00,meteohub,2013-04-18 15:03:00,
2013-04-18 08:08:00,60.8,32.2,30.20,NE,45,8.0,13.0,34,0.00,,,0.00,meteohub,2013-04-18 15:08:00,
2013-04-18 08:13:00,61.2,32.5,30.20,NE,45,6.0,13.0,34,0.00,,,0.00,meteohub,2013-04-18 15:13:00,
2013-04-18 08:18:00,61.3,32.7,30.20,North,0,6.0,12.0,34,0.00,,,0.00,meteohub,2013-04-18 15:18:00,
2013-04-18 08:24:00,61.9,33.3,30.21,NE,45,7.0,11.0,34,0.00,,,0.00,meteohub,2013-04-18 15:24:00,
2013-04-18 08:29:00,62.1,32.5,30.21,North,0,8.0,11.0,33,0.00,,,0.00,meteohub,2013-04-18 15:29:00,
2013-04-18 08:34:00,62.8,34.0,30.21,North,0,4.0,11.0,34,0.00,,,0.00,meteohub,2013-04-18 15:34:00,
2013-04-18 08:39:00,63.5,33.8,30.21,North,0,3.0,11.0,33,0.00,,,0.00,meteohub,2013-04-18 15:39:00,
2013-04-18 08:44:00,64.0,33.6,30.21,NE,45,4.0,8.0,32,0.00,,,0.00,meteohub,2013-04-18 15:44:00,
2013-04-18 08:49:00,64.4,33.1,30.22,NE,45,8.0,8.0,31,0.00,,,0.00,meteohub,2013-04-18 15:49:00,
2013-04-18 08:54:00,64.6,33.3,30.22,East,90,4.0,7.0,31,0.00,,,0.00,meteohub,2013-04-18 15:54:00,
2013-04-18 09:00:00,64.8,32.5,30.22,NE,45,11.0,11.0,30,0.00,,,0.00,meteohub,2013-04-18 16:00:00,
2013-04-18 09:05:00,64.9,33.6,30.21,NE,45,3.0,9.0,31,0.00,,,0.00,meteohub,2013-04-18 16:05:00,
2013-04-18 09:10:00,65.3,33.8,30.21,North,0,4.0,11.0,31,0.00,,,0.00,meteohub,2013-04-18 16:10:00,
2013-04-18 09:15:00,65.7,34.2,30.21,NE,45,5.0,11.0,31,0.00,,,0.00,meteohub,2013-04-18 16:15:00,
2013-04-18 09:20:00,66.0,33.6,30.22,West,270,3.0,9.0,30,0.00,,,0.00,meteohub,2013-04-18 16:20:00,
2013-04-18 09:25:00,66.2,33.8,30.21,North,0,6.0,11.0,30,0.00,,,0.00,meteohub,2013-04-18 16:25:00,
2013-04-18 09:30:00,66.6,33.3,30.21,North,0,8.0,11.0,29,0.00,,,0.00,meteohub,2013-04-18 16:30:00,
2013-04-18 09:35:00,66.7,33.4,30.21,NE,45,5.0,12.0,29,0.00,,,0.00,meteohub,2013-04-18 16:35:00,
2013-04-18 09:41:00,67.3,34.0,30.21,NE,45,6.0,12.0,29,0.00,,,0.00,meteohub,2013-04-18 16:41:00,
2013-04-18 09:46:00,67.6,34.2,30.21,East,90,3.0,8.0,29,0.00,,,0.00,meteohub,2013-04-18 16:46:00,
2013-04-18 09:51:00,68.0,34.5,30.21,NE,45,6.0,7.0,29,0.00,,,0.00,meteohub,2013-04-18 16:51:00,
2013-04-18 09:57:00,68.0,33.6,30.22,NW,315,4.0,9.0,28,0.00,,,0.00,meteohub,2013-04-18 16:57:00,
2013-04-18 10:02:00,68.4,34.0,30.22,NE,45,2.0,9.0,28,0.00,,,0.00,meteohub,2013-04-18 17:02:00,
2013-04-18 10:07:00,68.9,34.5,30.22,NE,45,4.0,9.0,28,0.00,,,0.00,meteohub,2013-04-18 17:07:00,
2013-04-18 10:12:00,69.1,33.6,30.22,North,0,4.0,8.0,27,0.00,,,0.00,meteohub,2013-04-18 17:12:00,
2013-04-18 10:17:00,69.6,35.1,30.21,East,90,4.0,8.0,28,0.00,,,0.00,meteohub,2013-04-18 17:17:00,
2013-04-18 10:22:00,69.8,33.4,30.22,NE,45,4.0,8.0,26,0.00,,,0.00,meteohub,2013-04-18 17:22:00,
2013-04-18 10:27:00,70.0,34.5,30.22,NE,45,6.0,9.0,27,0.00,,,0.00,meteohub,2013-04-18 17:27:00,
2013-04-18 10:32:00,70.3,34.7,30.22,North,0,4.0,9.0,27,0.00,,,0.00,meteohub,2013-04-18 17:32:00,
2013-04-18 10:37:00,70.7,33.1,30.22,East,90,6.0,9.0,25,0.00,,,0.00,meteohub,2013-04-18 17:37:00,
2013-04-18 10:42:00,70.7,32.2,30.22,ENE,68,8.0,8.0,24,0.00,,,0.00,meteohub,2013-04-18 17:42:00,
2013-04-18 10:47:00,70.9,33.3,30.22,SE,135,5.0,8.0,25,0.00,,,0.00,meteohub,2013-04-18 17:47:00,
2013-04-18 10:52:00,71.1,32.4,30.22,East,90,2.0,9.0,24,0.00,,,0.00,meteohub,2013-04-18 17:52:00,
2013-04-18 10:58:00,71.6,34.0,30.22,NE,45,3.0,9.0,25,0.00,,,0.00,meteohub,2013-04-18 17:58:00,
2013-04-18 11:03:00,72.0,34.2,30.22,North,0,4.0,9.0,25,0.00,,,0.00,meteohub,2013-04-18 18:03:00,
2013-04-18 11:08:00,72.7,32.7,30.22,North,0,4.0,8.0,23,0.00,,,0.00,meteohub,2013-04-18 18:08:00,
2013-04-18 11:13:00,73.0,33.1,30.22,NE,45,4.0,8.0,23,0.00,,,0.00,meteohub,2013-04-18 18:13:00,
2013-04-18 11:18:00,73.4,32.2,30.21,NE,45,2.0,8.0,22,0.00,,,0.00,meteohub,2013-04-18 18:18:00,
2013-04-18 11:24:00,73.8,31.5,30.21,North,0,7.0,7.0,21,0.00,,,0.00,meteohub,2013-04-18 18:24:00,
2013-04-18 11:29:00,73.8,31.5,30.21,NE,45,5.0,8.0,21,0.00,,,0.00,meteohub,2013-04-18 18:29:00,
2013-04-18 11:34:00,73.8,32.5,30.21,NE,45,3.0,10.0,22,0.00,,,0.00,meteohub,2013-04-18 18:34:00,
2013-04-18 11:40:00,73.9,32.7,30.21,ENE,68,3.0,10.0,22,0.00,,,0.00,meteohub,2013-04-18 18:40:00,
2013-04-18 11:45:00,74.3,31.8,30.21,SE,135,10.0,10.0,21,0.00,,,0.00,meteohub,2013-04-18 18:45:00,
2013-04-18 11:50:00,74.8,31.1,30.21,NE,45,6.0,10.0,20,0.00,,,0.00,meteohub,2013-04-18 18:50:00,
2013-04-18 11:55:00,75.2,28.8,30.21,NE,45,4.0,10.0,18,0.00,,,0.00,meteohub,2013-04-18 18:55:00,
2013-04-18 12:00:00,75.2,30.0,30.21,NE,45,5.0,10.0,19,0.00,,,0.00,meteohub,2013-04-18 19:00:00,
2013-04-18 12:05:00,75.6,30.4,30.20,NE,45,6.0,7.0,19,0.00,,,0.00,meteohub,2013-04-18 19:05:00,
2013-04-18 12:10:00,75.4,28.9,30.20,NE,45,4.0,10.0,18,0.00,,,0.00,meteohub,2013-04-18 19:10:00,
2013-04-18 12:15:00,75.6,29.1,30.20,NE,45,4.0,10.0,18,0.00,,,0.00,meteohub,2013-04-18 19:15:00,
2013-04-18 12:21:00,75.7,33.1,30.21,NE,45,4.0,10.0,21,0.00,,,0.00,meteohub,2013-04-18 19:21:00,
2013-04-18 12:26:00,76.3,33.4,30.21,NE,45,5.0,8.0,21,0.00,,,0.00,meteohub,2013-04-18 19:26:00,
2013-04-18 12:31:00,76.5,33.6,30.20,NE,45,4.0,8.0,21,0.00,,,0.00,meteohub,2013-04-18 19:31:00,
2013-04-18 12:36:00,76.5,31.1,30.20,North,0,6.0,7.0,19,0.00,,,0.00,meteohub,2013-04-18 19:36:00,
2013-04-18 12:42:00,76.1,32.2,30.20,North,0,4.0,9.0,20,0.00,,,0.00,meteohub,2013-04-18 19:42:00,
2013-04-18 12:47:00,76.6,32.5,30.20,NE,45,4.0,9.0,20,0.00,,,0.00,meteohub,2013-04-18 19:47:00,
2013-04-18 12:52:00,76.8,31.5,30.19,NE,45,6.0,8.0,19,0.00,,,0.00,meteohub,2013-04-18 19:52:00,
2013-04-18 12:57:00,77.2,30.4,30.19,NW,315,5.0,6.0,18,0.00,,,0.00,meteohub,2013-04-18 19:57:00,
2013-04-18 13:02:00,77.4,29.1,30.19,North,0,6.0,8.0,17,0.00,,,0.00,meteohub,2013-04-18 20:02:00,
2013-04-18 13:07:00,77.2,30.4,30.19,North,0,4.0,8.0,18,0.00,,,0.00,meteohub,2013-04-18 20:07:00,
2013-04-18 13:12:00,77.2,27.5,30.19,NE,45,6.0,8.0,16,0.00,,,0.00,meteohub,2013-04-18 20:12:00,
2013-04-18 13:17:00,77.5,30.7,30.18,North,0,4.0,8.0,18,0.00,,,0.00,meteohub,2013-04-18 20:17:00,
2013-04-18 13:23:00,77.9,29.7,30.19,North,0,7.0,14.0,17,0.00,,,0.00,meteohub,2013-04-18 20:23:00,
2013-04-18 13:28:00,77.9,26.6,30.18,NE,45,8.0,14.0,15,0.00,,,0.00,meteohub,2013-04-18 20:28:00,
2013-04-18 13:33:00,77.9,28.0,30.18,NE,45,8.0,11.0,16,0.00,,,0.00,meteohub,2013-04-18 20:33:00,
2013-04-18 13:38:00,77.9,26.6,30.18,North,0,7.0,11.0,15,0.00,,,0.00,meteohub,2013-04-18 20:38:00,
2013-04-18 13:43:00,78.3,25.2,30.18,East,90,5.0,11.0,14,0.00,,,0.00,meteohub,2013-04-18 20:43:00,
2013-04-18 13:48:00,78.4,27.0,30.18,North,0,8.0,11.0,15,0.00,,,0.00,meteohub,2013-04-18 20:48:00,
2013-04-18 13:53:00,78.4,27.0,30.17,NE,45,7.0,10.0,15,0.00,,,0.00,meteohub,2013-04-18 20:53:00,
2013-04-18 13:58:00,78.8,27.3,30.17,East,90,8.0,10.0,15,0.00,,,0.00,meteohub,2013-04-18 20:58:00,
2013-04-18 14:03:00,78.8,27.3,30.17,North,0,4.0,10.0,15,0.00,,,0.00,meteohub,2013-04-18 21:03:00,
2013-04-18 14:09:00,79.0,25.7,30.17,North,0,6.0,9.0,14,0.00,,,0.00,meteohub,2013-04-18 21:09:00,
2013-04-18 14:14:00,78.8,25.5,30.17,NE,45,4.0,9.0,14,0.00,,,0.00,meteohub,2013-04-18 21:14:00,
2013-04-18 14:19:00,79.3,27.7,30.17,NE,45,8.0,11.0,15,0.00,,,0.00,meteohub,2013-04-18 21:19:00,
2013-04-18 14:24:00,79.7,26.2,30.17,NE,45,4.0,11.0,14,0.00,,,0.00,meteohub,2013-04-18 21:24:00,
2013-04-18 14:29:00,79.7,26.2,30.16,NE,45,4.0,11.0,14,0.00,,,0.00,meteohub,2013-04-18 21:29:00,
2013-04-18 14:34:00,79.3,24.3,30.16,NE,45,7.0,8.0,13,0.00,,,0.00,meteohub,2013-04-18 21:34:00,
2013-04-18 14:40:00,79.3,26.1,30.16,North,0,5.0,11.0,14,0.00,,,0.00,meteohub,2013-04-18 21:40:00,
2013-04-18 14:45:00,79.7,24.4,30.15,NW,315,8.0,11.0,13,0.00,,,0.00,meteohub,2013-04-18 21:45:00,
2013-04-18 14:50:00,79.3,26.1,30.16,NE,45,4.0,11.0,14,0.00,,,0.00,meteohub,2013-04-18 21:50:00,
2013-04-18 14:55:00,79.3,26.1,30.15,North,0,5.0,8.0,14,0.00,,,0.00,meteohub,2013-04-18 21:55:00,
2013-04-18 15:00:00,79.7,24.4,30.16,North,0,10.0,10.0,13,0.00,,,0.00,meteohub,2013-04-18 22:00:00,
2013-04-18 15:05:00,79.7,22.6,30.15,NE,45,6.0,10.0,12,0.00,,,0.00,meteohub,2013-04-18 22:05:00,
2013-04-18 15:10:00,79.7,24.4,30.15,NE,45,7.0,10.0,13,0.00,,,0.00,meteohub,2013-04-18 22:10:00,
2013-04-18 15:15:00,79.7,26.2,30.14,NE,45,4.0,10.0,14,0.00,,,0.00,meteohub,2013-04-18 22:15:00,
2013-04-18 15:20:00,80.1,24.8,30.14,NE,45,4.0,8.0,13,0.00,,,0.00,meteohub,2013-04-18 22:20:00,
2013-04-18 15:25:00,80.6,23.4,30.14,NW,315,4.0,8.0,12,0.00,,,0.00,meteohub,2013-04-18 22:25:00,
2013-04-18 15:30:00,80.6,23.4,30.14,NE,45,4.0,10.0,12,0.00,,,0.00,meteohub,2013-04-18 22:30:00,
2013-04-18 15:35:00,80.8,23.4,30.14,North,0,6.0,10.0,12,0.00,,,0.00,meteohub,2013-04-18 22:35:00,
2013-04-18 15:41:00,81.0,25.5,30.14,NE,45,2.0,10.0,13,0.00,,,0.00,meteohub,2013-04-18 22:41:00,
2013-04-18 15:46:00,81.1,23.7,30.13,NE,45,6.0,8.0,12,0.00,,,0.00,meteohub,2013-04-18 22:46:00,
2013-04-18 15:51:00,81.3,23.9,30.13,East,90,8.0,8.0,12,0.00,,,0.00,meteohub,2013-04-18 22:51:00,
2013-04-18 15:56:00,81.0,23.5,30.13,NE,45,4.0,8.0,12,0.00,,,0.00,meteohub,2013-04-18 22:56:00,
2013-04-18 16:01:00,81.0,23.5,30.13,North,0,4.0,8.0,12,0.00,,,0.00,meteohub,2013-04-18 23:01:00,
2013-04-18 16:06:00,80.8,25.3,30.13,North,0,3.0,8.0,13,0.00,,,0.00,meteohub,2013-04-18 23:06:00,
2013-04-18 16:11:00,81.0,23.5,30.13,North,0,3.0,7.0,12,0.00,,,0.00,meteohub,2013-04-18 23:11:00,
2013-04-18 16:16:00,81.1,23.7,30.12,NE,45,5.0,8.0,12,0.00,,,0.00,meteohub,2013-04-18 23:16:00,
2013-04-18 16:21:00,81.0,21.6,30.13,NE,45,6.0,11.0,11,0.00,,,0.00,meteohub,2013-04-18 23:21:00,
2013-04-18 16:26:00,81.1,21.6,30.12,North,0,5.0,11.0,11,0.00,,,0.00,meteohub,2013-04-18 23:26:00,
2013-04-18 16:32:00,81.1,23.7,30.12,North,0,4.0,11.0,12,0.00,,,0.00,meteohub,2013-04-18 23:32:00,
2013-04-18 16:37:00,80.8,23.4,30.12,East,90,3.0,8.0,12,0.00,,,0.00,meteohub,2013-04-18 23:37:00,
2013-04-18 16:42:00,80.8,21.4,30.12,North,0,8.0,8.0,11,0.00,,,0.00,meteohub,2013-04-18 23:42:00,
2013-04-18 16:47:00,80.6,21.2,30.12,North,0,4.0,8.0,11,0.00,,,0.00,meteohub,2013-04-18 23:47:00,
2013-04-18 16:52:00,80.6,23.4,30.12,North,0,6.0,8.0,12,0.00,,,0.00,meteohub,2013-04-18 23:52:00,
2013-04-18 16:57:00,80.6,21.2,30.11,NE,45,2.0,8.0,11,0.00,,,0.00,meteohub,2013-04-18 23:57:00,
2013-04-18 17:02:00,80.8,21.4,30.11,NE,45,5.0,6.0,11,0.00,,,0.00,meteohub,2013-04-19 00:02:00,
2013-04-18 17:07:00,80.4,25.2,30.12,North,0,4.0,6.0,13,0.00,,,0.00,meteohub,2013-04-19 00:07:00,
2013-04-18 17:12:00,80.2,25.0,30.11,North,0,4.0,6.0,13,0.00,,,0.00,meteohub,2013-04-19 00:12:00,
2013-04-18 17:17:00,80.1,26.6,30.11,East,90,2.0,6.0,14,0.00,,,0.00,meteohub,2013-04-19 00:17:00,
2013-04-18 17:22:00,79.9,22.8,30.11,NW,315,4.0,6.0,12,0.00,,,0.00,meteohub,2013-04-19 00:22:00,
2013-04-18 17:27:00,79.7,22.6,30.11,NE,45,4.0,5.0,12,0.00,,,0.00,meteohub,2013-04-19 00:27:00,
2013-04-18 17:32:00,79.5,24.4,30.11,North,0,2.0,5.0,13,0.00,,,0.00,meteohub,2013-04-19 00:32:00,
2013-04-18 17:37:00,79.5,26.1,30.11,WNW,293,5.0,5.0,14,0.00,,,0.00,meteohub,2013-04-19 00:37:00,
2013-04-18 17:42:00,79.3,26.1,30.11,NE,45,4.0,5.0,14,0.00,,,0.00,meteohub,2013-04-19 00:42:00,
2013-04-18 17:47:00,79.3,27.7,30.11,North,0,3.0,5.0,15,0.00,,,0.00,meteohub,2013-04-19 00:47:00,
2013-04-18 17:52:00,79.2,25.9,30.11,North,0,3.0,5.0,14,0.00,,,0.00,meteohub,2013-04-19 00:52:00,
2013-04-18 17:57:00,79.0,25.7,30.11,NW,315,2.0,4.0,14,0.00,,,0.00,meteohub,2013-04-19 00:57:00,
2013-04-18 18:02:00,78.8,27.3,30.11,NE,45,4.0,7.0,15,0.00,,,0.00,meteohub,2013-04-19 01:02:00,
2013-04-18 18:07:00,78.8,27.3,30.11,NE,45,4.0,7.0,15,0.00,,,0.00,meteohub,2013-04-19 01:07:00,
2013-04-18 18:12:00,78.6,28.8,30.11,North,0,4.0,6.0,16,0.00,,,0.00,meteohub,2013-04-19 01:12:00,
2013-04-18 18:17:00,78.6,28.8,30.11,NE,45,2.0,6.0,16,0.00,,,0.00,meteohub,2013-04-19 01:17:00,
2013-04-18 18:22:00,78.4,28.6,30.11,NE,45,2.0,4.0,16,0.00,,,0.00,meteohub,2013-04-19 01:22:00,
2013-04-18 18:27:00,78.3,28.4,30.11,East,90,3.0,4.0,16,0.00,,,0.00,meteohub,2013-04-19 01:27:00,
2013-04-18 18:32:00,78.1,28.2,30.11,NE,45,2.0,4.0,16,0.00,,,0.00,meteohub,2013-04-19 01:32:00,
2013-04-18 18:37:00,77.9,26.6,30.11,NW,315,2.0,4.0,15,0.00,,,0.00,meteohub,2013-04-19 01:37:00,
2013-04-18 18:42:00,77.7,29.5,30.12,North,0,2.0,4.0,17,0.00,,,0.00,meteohub,2013-04-19 01:42:00,
2013-04-18 18:47:00,77.5,29.3,30.12,NE,45,2.0,4.0,17,0.00,,,0.00,meteohub,2013-04-19 01:47:00,
2013-04-18 18:52:00,77.4,29.1,30.12,NE,45,1.0,4.0,17,0.00,,,0.00,meteohub,2013-04-19 01:52:00,
2013-04-18 18:57:00,77.4,29.1,30.12,North,0,1.0,3.0,17,0.00,,,0.00,meteohub,2013-04-19 01:57:00,
2013-04-18 19:02:00,77.0,30.2,30.12,North,0,0.0,2.0,18,0.00,,,0.00,meteohub,2013-04-19 02:02:00,
2013-04-18 19:07:00,76.8,30.0,30.12,North,0,0.0,2.0,18,0.00,,,0.00,meteohub,2013-04-19 02:07:00,
2013-04-18 19:12:00,76.6,30.0,30.12,NE,45,0.0,2.0,18,0.00,,,0.00,meteohub,2013-04-19 02:12:00,
2013-04-18 19:17:00,76.3,29.7,30.11,North,0,2.0,2.0,18,0.00,,,0.00,meteohub,2013-04-19 02:17:00,
2013-04-18 19:22:00,75.9,29.3,30.11,North,0,1.0,2.0,18,0.00,,,0.00,meteohub,2013-04-19 02:22:00,
2013-04-18 19:27:00,75.6,30.4,30.12,North,0,0.0,2.0,19,0.00,,,0.00,meteohub,2013-04-19 02:27:00,
2013-04-18 19:32:00,75.2,30.0,30.12,North,0,0.0,2.0,19,0.00,,,0.00,meteohub,2013-04-19 02:32:00,
2013-04-18 19:37:00,74.7,30.9,30.11,North,0,0.0,1.0,20,0.00,,,0.00,meteohub,2013-04-19 02:37:00,
2013-04-18 19:42:00,74.1,31.6,30.11,North,0,0.0,0.0,21,0.00,,,0.00,meteohub,2013-04-19 02:42:00,
2013-04-18 19:47:00,73.4,31.1,30.12,North,0,0.0,0.0,21,0.00,,,0.00,meteohub,2013-04-19 02:47:00,
2013-04-18 19:52:00,72.9,31.8,30.12,North,0,0.0,0.0,22,0.00,,,0.00,meteohub,2013-04-19 02:52:00,
2013-04-18 19:57:00,72.3,32.4,30.12,West,270,0.0,0.0,23,0.00,,,0.00,meteohub,2013-04-19 02:57:00,
2013-04-18 20:02:00,71.6,32.9,30.12,West,270,0.0,2.0,24,0.00,,,0.00,meteohub,2013-04-19 03:02:00,
2013-04-18 20:07:00,71.1,34.5,30.12,West,270,0.0,2.0,26,0.00,,,0.00,meteohub,2013-04-19 03:07:00,
2013-04-18 20:12:00,70.3,35.6,30.12,West,270,0.0,0.0,28,0.00,,,0.00,meteohub,2013-04-19 03:12:00,
2013-04-18 20:17:00,70.0,37.0,30.12,North,0,0.0,0.0,30,0.00,,,0.00,meteohub,2013-04-19 03:17:00,
2013-04-18 20:22:00,70.0,37.0,30.12,North,0,0.0,0.0,30,0.00,,,0.00,meteohub,2013-04-19 03:22:00,
2013-04-18 20:27:00,68.4,39.6,30.12,North,0,0.0,0.0,35,0.00,,,0.00,meteohub,2013-04-19 03:27:00,
2013-04-18 20:32:00,67.6,39.7,30.13,North,0,1.0,1.0,36,0.00,,,0.00,meteohub,2013-04-19 03:32:00,
2013-04-18 20:37:00,66.9,40.5,30.13,North,0,0.0,1.0,38,0.00,,,0.00,meteohub,2013-04-19 03:37:00,
2013-04-18 20:42:00,66.2,40.5,30.12,North,0,0.0,1.0,39,0.00,,,0.00,meteohub,2013-04-19 03:42:00,
2013-04-18 20:47:00,65.7,41.4,30.13,North,0,1.0,1.0,41,0.00,,,0.00,meteohub,2013-04-19 03:47:00,
2013-04-18 20:52:00,65.1,41.5,30.13,North,0,0.0,1.0,42,0.00,,,0.00,meteohub,2013-04-19 03:52:00,
2013-04-18 20:57:00,64.6,41.5,30.13,North,0,0.0,1.0,43,0.00,,,0.00,meteohub,2013-04-19 03:57:00,
2013-04-18 21:01:00,64.4,41.4,30.13,North,0,0.0,1.0,43,0.00,,,0.00,meteohub,2013-04-19 04:01:00,
2013-04-18 21:02:00,64.4,41.4,30.13,North,0,0.0,1.0,43,0.00,,,0.00,meteohub,2013-04-19 04:02:00,
2013-04-18 21:03:00,64.4,41.4,30.13,North,0,0.0,1.0,43,0.00,,,0.00,meteohub,2013-04-19 04:03:00,
2013-04-18 21:08:00,63.7,41.4,30.14,North,0,0.0,0.0,44,0.00,,,0.00,meteohub,2013-04-19 04:08:00,
2013-04-18 21:13:00,63.5,41.7,30.14,North,0,0.0,0.0,45,0.00,,,0.00,meteohub,2013-04-19 04:13:00,
2013-04-18 21:18:00,63.0,41.9,30.14,North,0,0.0,0.0,46,0.00,,,0.00,meteohub,2013-04-19 04:18:00,
2013-04-18 21:24:00,62.8,41.7,30.14,North,0,0.0,2.0,46,0.00,,,0.00,meteohub,2013-04-19 04:24:00,
2013-04-18 21:29:00,62.6,41.5,30.15,North,0,0.0,2.0,46,0.00,,,0.00,meteohub,2013-04-19 04:29:00,
2013-04-18 21:34:00,62.2,41.7,30.15,North,0,0.0,2.0,47,0.00,,,0.00,meteohub,2013-04-19 04:34:00,
2013-04-18 21:39:00,61.9,41.4,30.15,SE,135,0.0,0.0,47,0.00,,,0.00,meteohub,2013-04-19 04:39:00,
2013-04-18 21:44:00,61.7,41.2,30.15,SE,135,0.0,0.0,47,0.00,,,0.00,meteohub,2013-04-19 04:44:00,
2013-04-18 21:49:00,61.3,41.0,30.15,SE,135,0.0,0.0,47,0.00,,,0.00,meteohub,2013-04-19 04:49:00,
2013-04-18 21:54:00,61.0,40.6,30.15,SE,135,0.0,0.0,47,0.00,,,0.00,meteohub,2013-04-19 04:54:00,
2013-04-18 21:59:00,60.8,41.0,30.15,SE,135,0.0,0.0,48,0.00,,,0.00,meteohub,2013-04-19 04:59:00,
2013-04-18 22:04:00,60.8,41.0,30.15,SE,135,0.0,0.0,48,0.00,,,0.00,meteohub,2013-04-19 05:04:00,
2013-04-18 22:09:00,60.3,41.0,30.15,SE,135,0.0,0.0,49,0.00,,,0.00,meteohub,2013-04-19 05:09:00,
2013-04-18 22:14:00,60.1,40.8,30.15,SE,135,0.0,0.0,49,0.00,,,0.00,meteohub,2013-04-19 05:14:00,
2013-04-18 22:19:00,59.9,41.2,30.15,SE,135,0.0,0.0,50,0.00,,,0.00,meteohub,2013-04-19 05:19:00,
2013-04-18 22:24:00,59.5,41.4,30.15,South,180,0.0,0.0,51,0.00,,,0.00,meteohub,2013-04-19 05:24:00,
2013-04-18 22:29:00,59.4,41.7,30.15,South,180,0.0,1.0,52,0.00,,,0.00,meteohub,2013-04-19 05:29:00,
2013-04-18 22:34:00,59.0,41.4,30.15,South,180,0.0,1.0,52,0.00,,,0.00,meteohub,2013-04-19 05:34:00,
2013-04-18 22:39:00,58.8,41.2,30.15,South,180,2.0,2.0,52,0.00,,,0.00,meteohub,2013-04-19 05:39:00,
2013-04-18 22:45:00,58.5,40.8,30.15,South,180,0.0,2.0,52,0.00,,,0.00,meteohub,2013-04-19 05:45:00,
2013-04-18 22:50:00,58.1,40.6,30.15,South,180,0.0,2.0,52,0.00,,,0.00,meteohub,2013-04-19 05:50:00,
2013-04-18 22:55:00,57.7,40.6,30.15,South,180,0.0,2.0,53,0.00,,,0.00,meteohub,2013-04-19 05:55:00,
2013-04-18 23:00:00,57.4,40.5,30.14,South,180,0.0,2.0,53,0.00,,,0.00,meteohub,2013-04-19 06:00:00,
2013-04-18 23:05:00,57.4,40.5,30.14,South,180,0.0,0.0,53,0.00,,,0.00,meteohub,2013-04-19 06:05:00,
2013-04-18 23:10:00,56.8,40.5,30.14,South,180,0.0,0.0,54,0.00,,,0.00,meteohub,2013-04-19 06:10:00,
2013-04-18 23:15:00,56.5,40.1,30.14,South,180,0.0,1.0,54,0.00,,,0.00,meteohub,2013-04-19 06:15:00,
2013-04-18 23:20:00,56.1,39.7,30.14,South,180,0.0,2.0,54,0.00,,,0.00,meteohub,2013-04-19 06:20:00,
2013-04-18 23:25:00,55.9,39.9,30.14,South,180,0.0,2.0,55,0.00,,,0.00,meteohub,2013-04-19 06:25:00,
2013-04-18 23:30:00,55.8,39.9,30.14,South,180,2.0,2.0,55,0.00,,,0.00,meteohub,2013-04-19 06:30:00,
2013-04-18 23:35:00,55.4,39.9,30.14,South,180,0.0,2.0,56,0.00,,,0.00,meteohub,2013-04-19 06:35:00,
2013-04-18 23:40:00,55.2,39.7,30.14,South,180,0.0,2.0,56,0.00,,,0.00,meteohub,2013-04-19 06:40:00,
2013-04-18 23:45:00,54.9,39.4,30.14,South,180,0.0,2.0,56,0.00,,,0.00,meteohub,2013-04-19 06:45:00,
2013-04-18 23:50:00,54.5,39.6,30.14,South,180,0.0,0.0,57,0.00,,,0.00,meteohub,2013-04-19 06:50:00,
2013-04-18 23:55:00,54.3,39.4,30.14,South,180,0.0,0.0,57,0.00,,,0.00,meteohub,2013-04-19 06:55:00,